TimeCDT,TemperatureF,Dew PointF,Humidity,Sea Level PressureIn,VisibilityMPH,Wind Direction,Wind SpeedMPH,Gust SpeedMPH,PrecipitationIn,Events,Conditions,WindDirDegrees,DateUTC
12:52 AM,66.0,55.0,68,30.03,10.0,WNW,6.9,-,N/A,,Clear,300,2013-06-28 05:52:00
1:52 AM,64.0,54.0,70,30.04,10.0,WNW,6.9,-,N/A,,Clear,290,2013-06-28 06:52:00
2:52 AM,60.8,53.6,77,29.58,10.0,WSW,4.6,-,N/A,,Clear,250,2013-06-28 07:52:00
3:52 AM,62.1,54.0,75,30.04,10.0,WNW,8.1,-,N/A,,Clear,300,2013-06-28 08:52:00
4:52 AM,60.1,53.1,78,30.06,10.0,WNW,4.6,-,N/A,,Clear,290,2013-06-28 09:52:00
5:52 AM,60.1,54.0,80,30.07,10.0,WNW,5.8,-,N/A,,Clear,300,2013-06-28 10:52:00
6:52 AM,61.0,54.0,78,30.08,10.0,WNW,6.9,-,N/A,,Clear,290,2013-06-28 11:52:00
7:52 AM,64.9,55.0,70,30.09,10.0,WNW,8.1,-,N/A,,Clear,300,2013-06-28 12:52:00
8:52 AM,69.1,57.0,65,30.10,10.0,WNW,6.9,-,N/A,,Clear,300,2013-06-28 13:52:00
9:52 AM,73.9,57.0,55,30.09,10.0,NNW,6.9,-,N/A,,Clear,330,2013-06-28 14:52:00
10:52 AM,77.0,57.9,52,30.09,10.0,WNW,9.2,-,N/A,,Clear,290,2013-06-28 15:52:00
11:52 AM,79.0,55.0,44,30.08,10.0,NNW,12.7,20.7,N/A,,Clear,340,2013-06-28 16:52:00
12:52 PM,80.1,55.0,42,30.08,10.0,NNW,20.7,26.5,N/A,,Partly Cloudy,330,2013-06-28 17:52:00
1:52 PM,81.0,54.0,39,30.07,10.0,NNW,19.6,28.8,N/A,,Clear,330,2013-06-28 18:52:00
2:52 PM,82.0,53.1,37,30.06,10.0,NW,23.0,32.2,N/A,,Clear,320,2013-06-28 19:52:00
3:52 PM,82.0,55.0,39,30.06,10.0,NNW,15.0,23.0,N/A,,Clear,340,2013-06-28 20:52:00
4:52 PM,82.9,54.0,37,30.06,10.0,NNW,18.4,25.3,N/A,,Partly Cloudy,330,2013-06-28 21:52:00
5:52 PM,80.1,53.1,39,30.05,10.0,NNW,16.1,26.5,N/A,,Scattered Clouds,340,2013-06-28 22:52:00
6:52 PM,80.1,52.0,38,30.04,10.0,NNW,19.6,24.2,N/A,,Partly Cloudy,330,2013-06-28 23:52:00
7:52 PM,79.0,53.1,40,30.04,10.0,North,15.0,19.6,N/A,,Clear,350,2013-06-29 00:52:00
8:52 PM,77.0,54.0,45,30.05,10.0,NNW,11.5,-,N/A,,Clear,340,2013-06-29 01:52:00
9:52 PM,73.9,48.9,41,30.05,10.0,NNW,13.8,-,N/A,,Clear,330,2013-06-29 02:52:00
10:52 PM,71.1,51.1,49,30.06,10.0,NNW,10.4,-,N/A,,Clear,330,2013-06-29 03:52:00
11:52 PM,68.0,53.1,59,30.05,10.0,NNW,8.1,-,N/A,,Clear,330,2013-06-29 04:52:00